Dewpoint
39 38 38 37 36 37 37 37 38 39 40 40 41 42 42 43 43 42 43 48 51 53 56 60 65 68 68 69 69 69 68 68 68 68 67 66 66 66 66 66 65 65 64
37 37 37 36 35 36 36 37 37 38 38 40 40 41 42 42 42 43 42 43 48 50 52 56 60 64 67 68 68 69 68 68 68 68 67 66 66 66 65 65 65 65 64
36 37 35 35 35 36 37 37 37 37 37 37 38 39 40 42 41 42 42 43 44 49 50 52 54 59 62 65 66 68 68 68 67 68 67 66 66 66 65 65 64 64 64
35 35 33 34 35 35 35 35 35 36 36 37 38 38 39 40 41 42 42 43 43 43 46 49 51 56 60 63 64 65 68 68 67 67 67 66 66 66 65 64 64 64 64
35 33 33 34 35 34 34 34 35 36 35 36 36 37 39 39 41 41 44 45 46 47 47 49 51 53 55 56 59 63 66 67 68 68 67 67 66 66 65 64 64 64 64
35 33 33 34 34 33 33 33 34 35 35 35 33 36 37 41 43 43 45 46 48 50 50 53 54 51 55 56 56 56 58 63 67 68 68 67 66 66 65 65 64 64 64
34 33 32 32 33 33 32 33 32 33 33 34 34 35 38 43 44 40 42 46 43 46 47 47 49 49 56 58 60 61 62 60 62 67 67 67 66 65 65 65 64 64 64
32 30 31 31 32 32 32 31 31 31 32 33 32 35 35 38 38 37 41 42 42 42 43 44 48 49 54 54 56 54 55 58 62 64 65 66 66 65 65 65 64 64 64
30 31 30 30 30 31 29 29 29 30 29 31 33 32 33 32 33 39 39 39 43 41 42 44 47 52 53 54 51 49 49 50 54 60 65 65 65 65 65 65 65 64 64
26 28 29 28 29 30 29 28 28 28 28 29 30 29 31 33 34 32 36 38 38 38 42 44 49 51 49 48 48 46 45 46 50 55 60 64 65 65 65 65 65 64 64
24 25 27 27 27 27 28 28 27 27 27 27 28 28 29 30 35 33 32 32 34 37 42 46 46 46 45 44 44 44 44 44 47 51 55 60 64 65 65 65 65 64 64
21 22 24 25 25 26 26 26 27 27 26 26 27 28 28 29 28 29 29 29 32 36 42 42 41 42 42 42 42 42 42 42 44 49 53 56 60 64 64 65 65 64 64
19 20 21 22 22 23 24 25 25 26 26 26 27 27 28 28 29 29 29 29 31 33 39 40 38 39 39 39 40 41 41 40 41 44 47 51 54 57 62 64 63 63 64
18 19 19 20 21 22 22 22 22 24 26 27 26 27 27 27 28 29 29 29 28 35 36 33 38 36 38 39 39 39 38 39 39 40 42 44 46 48 51 57 61 61 62
16 17 18 18 20 20 21 21 21 21 23 25 26 26 26 27 28 28 30 31 29 29 30 33 31 34 36 36 37 37 37 38 38 38 39 40 42 43 46 49 50 51 54
18 16 17 18 19 19 20 20 20 21 22 23 23 24 25 26 26 27 29 29 30 29 30 31 31 33 35 33 36 34 35 35 36 36 37 38 39 40 40 42 43 43 45
20 17 17 18 20 19 21 22 23 22 21 23 23 22 23 23 25 26 27 28 29 30 31 31 31 33 32 33 32 33 33 32 33 34 35 36 37 38 38 39 39 40 40
24 20 19 19 20 21 23 22 22 23 23 22 24 23 24 21 22 22 24 25 27 28 28 28 28 29 31 31 34 31 31 32 32 32 33 34 35 37 37 37 37 37 38
26 25 23 21 22 23 23 23 22 22 23 22 24 24 24 24 25 24 23 23 24 24 26 26 26 27 28 28 30 31 31 30 30 32 31 31 35 34 34 35 34 35 36
25 25 25 24 23 23 24 23 23 22 22 22 22 24 24 25 24 25 24 23 23 23 24 24 25 25 25 27 28 27 28 29 27 28 31 31 30 34 33 33 33 33 34
22 24 24 25 26 27 26 23 22 22 22 22 22 22 22 22 21 22 22 23 22 22 22 22 22 22 22 23 23 27 26 29 29 26 28 29 30 31 31 30 31 32 32
17 18 17 19 24 22 22 22 20 21 21 20 20 19 17 17 17 17 19 20 20 19 19 19 19 18 19 20 23 25 24 24 24 25 26 26 29 27 29 32 29 28 29
18 17 18 17 18 19 21 21 20 17 15 16 17 15 12 10 11 9 11 13 16 17 17 17 17 18 18 18 20 22 23 20 20 20 24 24 25 25 26 27 25 25 28
17 17 18 18 18 19 20 20 17 15 16 16 15 13 13 10 11 5 2 3 5 8 12 11 14 14 14 14 14 15 18 23 16 16 17 17 21 23 25 21 20 22 22
15 16 18 19 18 18 20 19 15 13 13 15 16 16 14 13 15 12 2 1 3 7 7 13 13 14 15 16 15 9 8 10 15 16 17 16 18 20 24 23 16 19 19
11 14 17 20 20 21 20 19 15 14 16 17 18 17 17 16 16 15 8 5 5 9 11 12 13 13 13 14 13 15 13 8 10 13 14 15 15 17 20 22 20 16 19
Lifted_Index
11 11 11 11 12 12 12 12 12 12 12 12 12 12 12 12 12 12 12 12 11 8 5 2 -0 -2 -3 -4 -4 -5 -5 -5 -5 -4 -4 -3 -2 -2 -1 -1 -0 0 0
11 12 12 12 13 13 13 13 12 12 12 12 12 12 12 12 12 12 12 12 11 10 8 5 2 -0 -2 -3 -4 -4 -4 -5 -4 -4 -4 -3 -3 -2 -1 -1 -0 0 0
13 13 13 13 13 13 13 13 13 12 12 12 12 12 12 12 12 12 12 12 12 12 11 9 6 3 1 -1 -2 -3 -4 -4 -4 -4 -4 -3 -3 -2 -2 -1 -0 0 0
14 13 13 13 13 13 13 13 13 12 12 12 12 12 12 12 12 12 12 12 12 12 12 11 10 7 4 2 -0 -2 -3 -3 -4 -4 -4 -3 -3 -2 -2 -1 -0 -0 0
13 13 13 13 13 13 13 13 13 13 12 12 12 12 12 12 12 12 12 12 12 12 11 11 10 9 7 5 3 1 -1 -2 -3 -4 -3 -3 -3 -2 -2 -1 -1 -0 -0
13 13 13 13 13 13 13 13 13 13 13 13 12 12 12 12 12 12 12 11 11 11 10 10 9 9 8 7 5 4 1 -1 -2 -3 -3 -3 -3 -2 -2 -2 -1 -1 -0
14 14 13 13 13 13 13 13 13 13 13 13 12 11 11 12 12 12 12 11 11 11 10 9 9 8 7 7 6 4 3 1 -1 -2 -3 -3 -3 -3 -2 -2 -1 -1 -1
15 15 14 14 14 13 13 13 13 12 12 12 12 11 10 11 12 13 13 12 12 11 11 10 10 9 8 7 6 5 4 3 1 -1 -2 -3 -3 -3 -3 -2 -2 -1 -1
15 15 15 15 14 14 13 13 12 11 11 11 11 11 11 10 11 12 12 13 12 12 12 11 11 10 9 8 8 7 6 4 3 1 -1 -2 -2 -3 -3 -3 -2 -1 -1
15 15 15 15 15 14 14 13 13 11 10 10 10 11 11 11 10 10 11 12 13 13 12 12 11 11 10 9 9 8 7 6 4 3 1 -0 -1 -2 -2 -3 -2 -1 -1
15 15 15 15 15 15 14 14 13 11 10 9 9 9 10 11 11 10 10 11 12 12 13 12 11 11 10 10 9 9 8 6 5 4 2 1 -0 -1 -2 -2 -2 -1 -1
15 15 16 15 15 15 15 15 14 13 11 10 9 8 9 9 10 10 10 10 10 11 12 12 11 11 11 10 10 9 8 7 6 5 3 2 1 -0 -1 -2 -2 -1 -1
15 15 16 16 16 16 16 15 15 14 13 12 10 9 9 10 11 11 10 9 9 10 11 12 12 12 12 11 11 10 9 8 6 5 4 3 1 1 -1 -2 -2 -1 -1
15 16 16 16 16 16 16 15 15 14 14 13 12 10 10 10 12 12 11 10 9 9 10 11 12 13 13 13 13 11 10 9 7 5 4 3 2 1 0 -1 -1 -1 -1
16 16 16 16 16 16 16 15 14 14 14 14 13 12 11 11 12 12 12 11 10 8 9 10 12 13 14 14 14 13 12 11 9 7 5 4 3 2 1 0 -1 -1 -1
17 17 17 17 17 17 16 15 14 14 14 14 14 13 13 12 12 12 12 12 11 10 9 11 13 14 15 15 15 14 13 12 11 10 8 6 5 4 3 2 1 -0 -0
17 18 18 18 17 17 16 15 14 14 13 14 14 14 14 13 12 12 11 11 11 11 11 12 14 15 15 15 16 15 15 14 14 13 12 10 9 7 6 5 3 2 1
18 19 19 18 18 17 16 15 14 14 13 13 13 14 14 14 13 13 12 12 12 12 11 12 13 14 15 16 16 16 16 16 16 16 15 14 13 11 10 9 7 5 4
19 19 19 18 18 17 16 15 14 14 14 14 14 13 13 14 13 13 13 13 13 12 12 12 12 13 15 16 16 16 16 17 17 17 17 17 16 15 14 13 11 9 9
19 19 19 18 18 17 16 15 14 14 14 14 14 14 14 14 14 14 14 14 14 14 13 12 12 13 14 15 15 15 16 16 17 18 18 18 17 17 17 16 15 14 14
19 19 18 18 17 17 16 15 15 14 14 14 14 15 15 15 16 15 15 15 15 14 14 13 13 13 14 15 15 15 16 16 17 18 18 18 18 18 18 19 18 18 17
18 18 18 17 17 16 16 16 15 15 14 14 14 15 16 17 17 17 17 17 16 15 15 14 14 14 15 16 16 17 17 17 17 18 19 18 19 20 20 21 21 20 20
18 17 17 17 16 16 17 16 16 15 15 15 15 16 16 17 17 18 18 17 17 17 17 16 16 16 16 17 18 18 18 18 18 20 20 19 20 21 22 23 23 22 22
17 17 17 17 17 17 17 17 16 16 15 15 16 16 17 17 18 18 18 17 17 18 19 19 19 19 19 19 19 18 18 18 19 20 20 19 20 21 22 23 24 24 24
17 17 17 17 17 17 17 17 17 16 16 16 17 18 18 18 19 19 18 17 17 18 20 20 20 21 21 21 20 19 18 17 17 18 19 19 19 20 21 23 24 25 25
17 17 17 18 18 18 18 18 17 17 16 16 17 18 19 19 19 19 18 17 17 18 20 20 20 21 21 21 21 20 18 16 16 17 19 19 19 20 20 22 24 24 25